EW1145 Weather Reports


Display with metric or nautical units.
time (UTC)temp
F
wind
direction
speed
MPH
gust
MPH
rain 1hr
in
rain 24hr
in
rain mn
in
humidity
%
barometer
mb
20260508120056 47 300 0.0 0.0 0.00 0.00 0.00 91 1018.1
20260508114556 47 300 0.0 0.0 0.00 0.00 0.00 91 1018.2
20260508113053 48 300 0.0 0.0 0.00 0.00 0.00 90 1017.9
20260508111551 48 300 0.0 0.0 0.00 0.00 0.00 90 1017.9
20260508110054 48 300 0.0 0.0 0.00 0.00 0.00 89 1017.5
20260508104546 48 300 0.0 0.0 0.00 0.00 0.00 89 1017.4
20260508103045 48 300 0.0 0.0 0.00 0.00 0.00 89 1017.3
20260508101544 48 300 0.0 0.0 0.00 0.00 0.00 89 1017.2
20260508100043 48 300 0.0 0.0 0.00 0.00 0.00 88 1017.1
20260508094549 48 300 0.0 0.0 0.00 0.00 0.00 87 1017.0
20260508093039 49 300 0.0 0.0 0.00 0.00 0.00 87 1016.9
20260508091538 49 300 0.0 0.0 0.00 0.00 0.00 86 1016.6
20260508090035 49 300 0.0 0.0 0.00 0.00 0.00 85 1016.6
20260508084533 50 300 0.0 0.0 0.00 0.00 0.00 84 1016.6
20260508083112 50 300 0.0 0.0 0.00 0.00 0.00 84 1016.5
20260508081530 50 300 0.0 0.0 0.00 0.00 0.00 84 1016.4
20260508080027 51 300 0.0 0.0 0.00 0.00 0.00 83 1016.3
20260508074531 52 300 0.0 0.0 0.00 0.00 0.00 82 1016.3
20260508073029 52 300 0.0 0.0 0.00 0.00 0.00 82 1016.2
20260508071525 52 300 0.0 0.0 0.00 0.00 0.00 81 1016.2
20260508070020 53 300 0.0 0.0 0.00 0.00 0.00 80 1016.3
20260508064538 54 300 0.0 0.0 0.00 0.00 0.00 78 1016.2
20260508063018 55 300 0.0 0.0 0.00 0.00 0.00 75 1016.2
20260508061523 57 300 0.0 0.0 0.00 0.00 0.00 70 1016.2
20260508060017 57 300 0.0 5.0 0.00 0.00 0.00 66 1016.2
20260508054517 58 286 0.0 9.0 0.00 0.00 0.00 67 1016.2
20260508053017 58 302 0.0 5.0 0.00 0.00 0.00 68 1016.2
20260508051517 59 275 0.0 6.0 0.00 0.00 0.00 68 1016.2
20260508050021 59 289 0.0 3.0 0.00 0.00 0.00 68 1016.2
20260508044516 60 304 0.0 3.0 0.00 0.00 0.00 67 1016.2
20260508043015 61 304 0.0 5.0 0.00 0.00 0.00 68 1016.3
20260508041515 61 305 1.0 5.0 0.00 0.00 0.00 68 1016.1
20260508040014 62 83 0.0 0.0 0.00 0.00 0.00 64 1015.8
20260508034514 63 83 0.0 0.0 0.00 0.00 0.00 61 1015.7
20260508033016 64 83 0.0 0.0 0.00 0.00 0.00 59 1015.6
20260508031512 65 83 0.0 0.0 0.00 0.00 0.00 57 1015.4
20260508024521 69 218 0.0 0.0 0.00 0.00 0.00 58 1015.1
20260508023009 70 218 0.0 0.0 0.00 0.00 0.00 53 1015.2
20260508021511 71 218 0.0 0.0 0.00 0.00 0.00 50 1015.2
20260508020014 70 218 0.0 0.0 0.00 0.00 0.00 52 1015.3
20260508014508 71 219 0.0 0.0 0.00 0.00 0.00 52 1015.4
20260508013005 71 218 0.0 3.0 0.00 0.00 0.00 50 1015.5
20260508011505 71 219 0.0 1.0 0.00 0.00 0.00 49 1015.6
20260508010005 71 219 1.0 4.0 0.00 0.00 0.00 49 1015.8
20260508004502 71 219 0.0 5.0 0.00 0.00 0.00 50 1015.8
20260508003113 71 198 0.0 3.0 0.00 0.00 0.00 50 1015.9
20260508001559 70 90 0.0 3.0 0.00 0.00 0.00 49 1016.0
20260508000057 70 210 0.0 4.0 0.00 0.00 0.00 51 1016.2
20260507234558 71 192 0.0 2.0 0.00 0.00 0.00 51 1016.2
20260507233053 70 184 0.0 4.0 0.00 0.00 0.00 51 1016.4
20260507231606 70 194 0.0 2.0 0.00 0.00 0.00 49 1016.6
20260507230051 70 200 0.0 4.0 0.00 0.00 0.00 49 1016.8
20260507224557 69 134 0.0 4.0 0.00 0.00 0.00 51 1017.1
20260507223044 68 78 0.0 5.0 0.00 0.00 0.00 51 1017.3
20260507221542 68 103 0.0 5.0 0.00 0.00 0.00 50 1017.5
20260507220040 68 98 0.0 4.0 0.00 0.00 0.00 50 1017.8
20260507214535 66 209 0.0 1.0 0.00 0.00 0.00 53 1018.0
20260507213033 65 107 0.0 4.0 0.00 0.00 0.00 53 1018.1
20260507211532 65 24 0.0 4.0 0.00 0.00 0.00 54 1018.2
20260507210030 65 193 0.0 4.0 0.00 0.00 0.00 53 1018.3
20260507204527 64 113 2.0 8.0 0.00 0.00 0.00 55 1018.6
20260507203024 63 344 1.0 7.0 0.00 0.00 0.00 57 1018.8
20260507201523 62 108 2.0 6.0 0.00 0.00 0.00 57 1019.0
20260507200030 62 94 1.0 6.0 0.00 0.00 0.00 58 1019.2
20260507194516 61 326 0.0 4.0 0.00 0.00 0.00 58 1019.4
20260507193013 60 76 3.0 8.0 0.00 0.00 0.00 60 1019.5
20260507191509 59 106 1.0 7.0 0.00 0.00 0.00 61 1019.7
20260507190020 59 84 1.0 5.0 0.00 0.00 0.00 62 1019.8
20260507184505 59 229 1.0 5.0 0.00 0.00 0.00 62 1019.9
20260507183008 58 31 0.0 5.0 0.00 0.00 0.00 65 1020.0
20260507181502 58 95 0.0 1.0 0.00 0.00 0.00 64 1020.2
20260507180002 57 117 0.0 5.0 0.00 0.00 0.00 66 1020.3
20260507174502 58 355 0.0 3.0 0.00 0.00 0.00 64 1020.4
20260507173100 58 126 0.0 5.0 0.00 0.00 0.00 65 1020.5
20260507171604 57 104 0.0 3.0 0.00 0.00 0.00 67 1020.5
20260507170056 56 195 0.0 5.0 0.00 0.00 0.00 67 1020.6
20260507164555 55 287 0.0 5.0 0.00 0.00 0.00 68 1020.7
20260507163050 54 74 0.0 5.0 0.00 0.00 0.00 69 1020.7
20260507161548 53 314 0.0 5.0 0.00 0.00 0.00 70 1020.7
20260507160054 52 293 0.0 5.0 0.00 0.00 0.00 72 1020.8
20260507154546 51 121 0.0 4.0 0.00 0.00 0.00 74 1020.8
20260507153051 51 43 0.0 3.0 0.00 0.00 0.00 74 1020.8
20260507151544 50 296 0.0 1.0 0.00 0.00 0.00 75 1020.8
20260507150044 50 296 0.0 4.0 0.00 0.00 0.00 76 1020.8
20260507144548 49 289 0.0 4.0 0.00 0.00 0.00 77 1020.8
20260507143043 49 325 0.0 6.0 0.00 0.00 0.00 78 1020.7
20260507141541 49 294 0.0 2.0 0.00 0.00 0.00 78 1020.7
20260507134540 49 294 0.0 4.0 0.00 0.00 0.00 78 1020.5
20260507133039 49 284 0.0 5.0 0.00 0.00 0.00 78 1020.4
20260507131538 49 281 0.0 4.0 0.00 0.00 0.00 77 1020.3
20260507130048 49 284 0.0 0.0 0.00 0.00 0.00 77 1020.3
20260507124541 50 284 0.0 3.0 0.00 0.00 0.00 77 1020.2
20260507123038 50 283 0.0 4.0 0.00 0.00 0.00 75 1020.2
20260507121539 50 344 0.0 1.0 0.00 0.00 0.00 75 1020.3